TimeMDT,TemperatureF,Dew PointF,Humidity,Sea Level PressureIn,VisibilityMPH,Wind Direction,Wind SpeedMPH,Gust SpeedMPH,PrecipitationIn,Events,Conditions,WindDirDegrees,DateUTC
12:56 AM,30.0,18.1,61,30.09,10.0,SW,4.6,-,N/A,,Clear,220,2012-10-05 06:56:00
1:56 AM,28.0,18.1,66,30.10,10.0,SW,3.5,-,N/A,,Clear,220,2012-10-05 07:56:00
2:56 AM,23.0,16.2,75,30.13,10.0,South,6.9,-,N/A,,Clear,180,2012-10-05 08:56:00
3:56 AM,24.1,16.2,72,30.13,10.0,Calm,Calm,-,N/A,,Clear,0,2012-10-05 09:56:00
4:56 AM,24.1,16.2,72,30.14,10.0,West,3.5,-,N/A,,Clear,260,2012-10-05 10:56:00
5:56 AM,24.1,15.1,69,30.17,10.0,West,4.6,-,N/A,,Clear,260,2012-10-05 11:56:00
6:56 AM,18.1,13.1,81,30.22,10.0,South,4.6,-,N/A,,Clear,190,2012-10-05 12:56:00
7:56 AM,18.1,12.0,77,30.24,10.0,SSE,5.8,-,N/A,,Clear,150,2012-10-05 13:56:00
8:56 AM,28.0,17.1,63,30.21,10.0,Calm,Calm,-,N/A,,Clear,0,2012-10-05 14:56:00
9:56 AM,32.0,16.2,52,30.22,10.0,Calm,Calm,-,N/A,,Clear,0,2012-10-05 15:56:00
10:56 AM,37.9,17.1,43,30.23,10.0,Variable,3.5,-,N/A,,Clear,0,2012-10-05 16:56:00
11:56 AM,38.8,11.1,32,30.20,10.0,SSW,3.5,-,N/A,,Clear,210,2012-10-05 17:56:00
12:56 PM,43.0,9.1,25,30.19,10.0,NNW,3.5,-,N/A,,Clear,330,2012-10-05 18:56:00
1:56 PM,45.9,8.1,21,30.17,10.0,WNW,8.1,-,N/A,,Clear,290,2012-10-05 19:56:00
2:56 PM,46.9,9.1,22,30.17,10.0,NNW,8.1,-,N/A,,Clear,330,2012-10-05 20:56:00
3:56 PM,46.9,7.2,20,30.16,10.0,NW,16.1,-,N/A,,Clear,310,2012-10-05 21:56:00
4:56 PM,46.9,3.0,16,30.16,10.0,NW,10.4,-,N/A,,Clear,320,2012-10-05 22:56:00
5:56 PM,45.9,3.0,17,30.17,10.0,WNW,8.1,-,N/A,,Clear,290,2012-10-05 23:56:00
6:56 PM,39.9,8.1,27,30.22,10.0,West,5.8,-,N/A,,Clear,270,2012-10-06 00:56:00
7:56 PM,34.0,7.2,33,30.26,10.0,NNW,8.1,-,N/A,,Clear,340,2012-10-06 01:56:00
8:56 PM,31.1,8.1,38,30.24,10.0,Calm,Calm,-,N/A,,Clear,0,2012-10-06 02:56:00
9:56 PM,27.1,11.1,51,30.25,10.0,Calm,Calm,-,N/A,,Scattered Clouds,0,2012-10-06 03:56:00
10:56 PM,25.2,10.0,53,30.24,10.0,SSW,6.9,-,N/A,,Partly Cloudy,200,2012-10-06 04:56:00
11:56 PM,27.1,12.0,53,30.25,10.0,ESE,4.6,-,N/A,,Overcast,110,2012-10-06 05:56:00